Regional Weather Roundup
Issued by NWS

Home | Current Version | Previous Version | Text Only | Print | Product List | Glossary On
Versions: 1 2 3 4 5 6 7 8 9 10 11 12 13 14 15 16 17 18 19 20 21 22 23 24 25 26 27 28 29 30 31 32 33 34 35 36 37 38 39 40 41 42 43 44 45 46 47 48 49 50
000
ASUS42 KFFC 260210
RWRGA
WEATHER ROUNDUP FOR GEORGIA
NATIONAL WEATHER SERVICE PEACHTREE CITY GA
1000 PM EDT SUN JUN 25 2017

NOTE: "FAIR" INDICATES FEW OR NO CLOUDS BELOW 12,000 FEET WITH NO
SIGNIFICANT WEATHER AND/OR OBSTRUCTIONS TO VISIBILITY.

* = USE WITH CAUTION. THE STATIONS MARKED WITH AN ASTERISK MAY NOT
REPORT WEATHER SUCH AS PRECIPITATION, FOG, OR THUNDER AND ARE NOT
QUALITY CONTROLLED BY NWS.

THE REMARK "TC" DENOTES TEMPERATURE READING IN DEGREES CELSIUS.

GAZ001>058-260300-
NORTH GEORGIA

CITY           SKY/WX    TMP DP  RH WIND       PRES   REMARKS
ATLANTA        CLOUDY    71  61  70 NW10      30.15F
ATHENS         MOCLDY    72  63  73 CALM      30.13R
CHAMBLEE       CLOUDY    71  58  63 NW9       30.15S
PEACHTREE CITY CLOUDY    70  61  73 NW9       30.16R
ROME           PTCLDY    68  66  93 CALM      30.16R
WEST ATLANTA   CLOUDY    70  63  78 NW5       30.16R
GAINESVILLE    PTCLDY    70  61  73 NW6       30.17S
CARTERSVILLE   PTCLDY    66  66 100 CALM      30.17S


CITY           SKY/WX    TMP DP  RH WIND       PRES   REMARKS
DALTON*        CLEAR     66  64  94 CALM      30.17S
MARIETTA       MOCLDY    68  62  80 W8        30.17R
KENNESAW*      MOCLDY    70  63  78 CALM      30.15R
CANTON*        PTCLDY    68  68 100 CALM      30.19R
$$

GAZ059>098-102>109-260300-
CENTRAL GEORGIA

CITY           SKY/WX    TMP DP  RH WIND       PRES   REMARKS
AUGUSTA-BUSH   MOCLDY    81  75  82 NE5       30.07R
AUGUSTA-DANIEL CLOUDY    82  67  60 N8        30.09S
COLUMBUS       CLOUDY    76  59  55 N6        30.11F
MACON          CLOUDY    77  63  61 N5        30.10R
ROBINS AFB     CLOUDY    76  67  72 NW6       30.09R


CITY           SKY/WX    TMP DP  RH WIND       PRES   REMARKS
LAGRANGE*      CLOUDY    72  61  69 N5        30.15S
SYLVANIA*      CLOUDY    76  76 100 CALM      30.08S
MILLEDGEVILLE* CLOUDY    77  68  73 N5        30.10S
$$

GAZ099>101-110>166-260300-
SOUTH GEORGIA

CITY           SKY/WX    TMP DP  RH WIND       PRES   REMARKS
SAVANNAH       CLOUDY    76  74  93 SW5       30.06F
VALDOSTA       PTCLDY    75  74  96 CALM      30.09R
ALMA           CLOUDY    75  74  96 CALM      30.08S
ST SIMONS      CLOUDY    77  74  90 CALM      30.06F
FT STEWART     CLOUDY    75  73  94 W5        30.04F
ALBANY         CLOUDY    76  75  97 CALM      30.12R
HUNTER AFB     MOCLDY    76  76  98 CALM      30.03F
MOODY AFB      CLOUDY    75  73  94 CALM      30.08S
BRUNSWICK      CLOUDY    75  73  94 CALM      30.07F


CITY           SKY/WX    TMP DP  RH WIND       PRES   REMARKS
BAINBRIDGE*    CLOUDY    79  77  94 CALM      30.10S
MOULTRIE*      CLOUDY    73  72  94 CALM      30.11S
VIDALIA*       CLOUDY    77  75  94 S5        30.09S
WAYCROSS*      LGT RAIN  78  78 100 CALM      30.09S
DOUGLAS*       CLOUDY    77  73  88 CALM      30.10S
$$



USA.gov is the U.S. government's official web portal to all federal, state and local government web resources and services.